Volver al catálogo

CZ-6A DEB

ActivoSSO
NORAD 56587·DEBRIS·🇨🇳 China

Lanzado Nov 11, 2022 desde Taiyuan Satellite Launch Center

Loading…

Próximos Pases (próximas 24 horas)

TLE

ActualizadoSource: Space-Track

Época: Sep 12, 2026, 08:24 UTC

1 56587U 22151ADK 26255.35034805  .00000727  00000-0  54301-3 0  9992
2 56587  98.9440 215.8969 0165586 253.9454 104.3417 13.91701010171697

Sigue CZ-6A DEB en tiempo real con AllMySat

Download on the App Store